• In Uzbekistan
  • List of Countries
  • For 7 days
  • Water Temperature
  • Satellite Maps
  • Weather Map
  • Weather Widgets
  • user-avatar
    Login

    Hourly Weather Wien

    Today, 28 July, Friday

    Time Temperature Precipitation Wind Pressure Humidity
    00:00 +17°C° 0 mm 2 mps 740 mmHg 83%
    01:00 +16°C° 0 mm 2 mps 740 mmHg 83%
    02:00 +16°C° 0 mm 2 mps 740 mmHg 83%
    03:00 +16°C° 0 mm 2 mps 740 mmHg 83%
    04:00 +16°C° 0 mm 2 mps 740 mmHg 83%
    05:00 +18°C° 0 mm 2 mps 740 mmHg 79%
    06:00 +19°C° 0 mm 2 mps 740 mmHg 75%
    07:00 +20°C° 0 mm 2 mps 740 mmHg 71%
    08:00 +21°C° 0.1 mm 3 mps 740 mmHg 68%
    09:00 +23°C° 0.1 mm 4 mps 741 mmHg 64%
    10:00 +25°C° 0.1 mm 5 mps 741 mmHg 60%
    11:00 +26°C° 0 mm 5 mps 741 mmHg 56%
    12:00 +27°C° 0 mm 6 mps 741 mmHg 51%
    13:00 +28°C° 0 mm 6 mps 741 mmHg 46%
    14:00 +28°C° 0.1 mm 6 mps 741 mmHg 45%
    15:00 +28°C° 0.1 mm 6 mps 741 mmHg 44%
    16:00 +28°C° 0.1 mm 6 mps 741 mmHg 43%
    17:00 +27°C° 0 mm 5 mps 742 mmHg 49%
    18:00 +25°C° 0 mm 4 mps 742 mmHg 55%
    19:00 +24°C° 0 mm 3 mps 742 mmHg 61%
    20:00 +21°C° 0 mm 3 mps 743 mmHg 65%
    21:00 +20°C° 0 mm 3 mps 743 mmHg 69%
    22:00 +19°C° 0 mm 3 mps 744 mmHg 73%
    23:00 +18°C° 0 mm 3 mps 744 mmHg 75%

    Tomorrow, 29 July, Saturday

    Time Temperature Precipitation Wind Pressure Humidity
    00:00 +18°C° 0 mm 2 mps 744 mmHg 76%
    01:00 +17°C° 0 mm 2 mps 745 mmHg 78%
    02:00 +17°C° 0 mm 2 mps 745 mmHg 79%
    03:00 +16°C° 0 mm 2 mps 745 mmHg 80%
    04:00 +16°C° 0 mm 2 mps 745 mmHg 81%
    05:00 +18°C° 0 mm 1 mps 745 mmHg 76%
    06:00 +20°C° 0 mm 1 mps 745 mmHg 70%
    07:00 +21°C° 0 mm 1 mps 746 mmHg 65%
    08:00 +23°C° 0 mm 1 mps 746 mmHg 59%
    09:00 +25°C° 0 mm 1 mps 746 mmHg 54%
    10:00 +27°C° 0 mm 1 mps 746 mmHg 48%
    11:00 +28°C° 0 mm 2 mps 745 mmHg 45%
    12:00 +30°C° 0 mm 2 mps 745 mmHg 42%
    13:00 +31°C° 0 mm 2 mps 745 mmHg 39%
    14:00 +31°C° 0 mm 2 mps 744 mmHg 39%
    15:00 +32°C° 0 mm 2 mps 744 mmHg 38%
    16:00 +32°C° 0 mm 2 mps 744 mmHg 37%
    17:00 +31°C° 0 mm 2 mps 744 mmHg 42%
    18:00 +29°C° 0 mm 1 mps 744 mmHg 48%
    19:00 +28°C° 0 mm 1 mps 744 mmHg 53%
    20:00 +27°C° 0 mm 1 mps 744 mmHg 56%
    21:00 +25°C° 0 mm 1 mps 744 mmHg 58%
    22:00 +24°C° 0 mm 1 mps 745 mmHg 61%
    23:00 +24°C° 0 mm 1 mps 745 mmHg 63%

    Day after tomorrow, 30 July, Sunday

    Time Temperature Precipitation Wind Pressure Humidity
    00:00 +23°C° 0 mm 1 mps 744 mmHg 65%
    01:00 +23°C° 0 mm 1 mps 744 mmHg 68%
    02:00 +22°C° 0 mm 1 mps 744 mmHg 69%
    03:00 +22°C° 0 mm 1 mps 744 mmHg 71%
    04:00 +21°C° 0 mm 1 mps 744 mmHg 73%
    05:00 +21°C° 0 mm 2 mps 744 mmHg 70%
    06:00 +24°C° 0 mm 2 mps 744 mmHg 67%
    07:00 +25°C° 0 mm 2 mps 744 mmHg 64%
    08:00 +27°C° 0 mm 3 mps 744 mmHg 58%
    09:00 +29°C° 0 mm 3 mps 744 mmHg 53%
    10:00 +32°C° 0 mm 4 mps 744 mmHg 47%
    11:00 +33°C° 0 mm 4 mps 743 mmHg 43%
    12:00 +35°C° 0 mm 4 mps 743 mmHg 40%
    13:00 +36°C° 0 mm 5 mps 743 mmHg 36%
    14:00 +36°C° 0 mm 4 mps 742 mmHg 36%
    15:00 +36°C° 0 mm 4 mps 742 mmHg 36%
    16:00 +36°C° 0 mm 3 mps 742 mmHg 36%
    17:00 +34°C° 0 mm 3 mps 742 mmHg 42%
    18:00 +31°C° 0 mm 2 mps 742 mmHg 47%
    19:00 +30°C° 0 mm 2 mps 742 mmHg 53%
    20:00 +28°C° 0.3 mm 2 mps 742 mmHg 57%
    21:00 +27°C° 0.3 mm 1 mps 743 mmHg 62%
    22:00 +26°C° 0.3 mm 1 mps 743 mmHg 66%
    23:00 +25°C° 0.2 mm 1 mps 743 mmHg 69%

    31 July, Monday

    Time Temperature Precipitation Wind Pressure Humidity
    00:00 +25°C° 0.2 mm 1 mps 743 mmHg 71%
    01:00 +24°C° 0.2 mm 1 mps 743 mmHg 74%
    02:00 +24°C° 0 mm 1 mps 743 mmHg 76%
    03:00 +23°C° 0 mm 1 mps 743 mmHg 78%
    04:00 +23°C° 0 mm 1 mps 744 mmHg 80%
    05:00 +24°C° 0.1 mm 1 mps 744 mmHg 76%
    06:00 +25°C° 0.1 mm 1 mps 744 mmHg 72%
    07:00 +26°C° 0.1 mm 1 mps 745 mmHg 69%
    08:00 +28°C° 0 mm 1 mps 745 mmHg 62%
    09:00 +30°C° 0 mm 1 mps 745 mmHg 56%
    10:00 +32°C° 0 mm 1 mps 745 mmHg 50%
    11:00 +33°C° 0 mm 1 mps 745 mmHg 45%
    12:00 +35°C° 0 mm 2 mps 745 mmHg 41%
    13:00 +36°C° 0 mm 2 mps 745 mmHg 37%
    14:00 +37°C° 0 mm 3 mps 744 mmHg 36%
    15:00 +37°C° 0 mm 3 mps 744 mmHg 35%
    16:00 +37°C° 0 mm 3 mps 744 mmHg 34%
    17:00 +35°C° 0 mm 3 mps 744 mmHg 39%
    18:00 +34°C° 0 mm 3 mps 744 mmHg 44%
    19:00 +31°C° 0 mm 3 mps 744 mmHg 50%
    20:00 +30°C° 0 mm 3 mps 744 mmHg 52%
    21:00 +29°C° 0 mm 2 mps 744 mmHg 54%
    22:00 +28°C° 0 mm 2 mps 745 mmHg 56%
    23:00 +27°C° 0 mm 2 mps 744 mmHg 57%

    1 August, Tuesday

    Time Temperature Precipitation Wind Pressure Humidity
    00:00 +26°C° 0 mm 2 mps 744 mmHg 58%
    01:00 +26°C° 0 mm 2 mps 744 mmHg 59%
    02:00 +25°C° 0 mm 2 mps 744 mmHg 60%
    03:00 +25°C° 0 mm 2 mps 744 mmHg 61%
    04:00 +25°C° 0 mm 3 mps 744 mmHg 61%
    05:00 +26°C° 0 mm 3 mps 744 mmHg 59%
    06:00 +27°C° 0 mm 3 mps 744 mmHg 57%
    07:00 +28°C° 0 mm 3 mps 744 mmHg 55%
    08:00 +32°C° 0 mm 4 mps 745 mmHg 49%
    09:00 +34°C° 0 mm 5 mps 745 mmHg 43%
    10:00 +36°C° 0 mm 5 mps 745 mmHg 36%
    11:00 +37°C° 0 mm 5 mps 745 mmHg 34%
    12:00 +39°C° 0 mm 5 mps 745 mmHg 31%
    13:00 +40°C° 0 mm 5 mps 744 mmHg 28%
    14:00 +40°C° 0 mm 5 mps 744 mmHg 27%
    15:00 +40°C° 0 mm 4 mps 744 mmHg 27%
    16:00 +41°C° 0 mm 4 mps 744 mmHg 27%
    17:00 +38°C° 0 mm 3 mps 744 mmHg 33%
    18:00 +36°C° 0 mm 2 mps 744 mmHg 38%
    19:00 +33°C° 0 mm 1 mps 744 mmHg 44%
    20:00 +31°C° 0 mm 1 mps 744 mmHg 47%
    21:00 +30°C° 0 mm 1 mps 744 mmHg 50%
    22:00 +28°C° 0 mm 1 mps 745 mmHg 53%
    23:00 +28°C° 0 mm 1 mps 745 mmHg 55%

    2 August, Wednesday

    Time Temperature Precipitation Wind Pressure Humidity
    00:00 +27°C° 0 mm 1 mps 745 mmHg 58%
    01:00 +26°C° 0 mm 1 mps 745 mmHg 60%
    02:00 +26°C° 0.4 mm 1 mps 745 mmHg 64%
    03:00 +25°C° 0.4 mm 1 mps 746 mmHg 67%
    04:00 +25°C° 0.4 mm 1 mps 746 mmHg 70%
    05:00 +25°C° 0.2 mm 1 mps 746 mmHg 69%
    06:00 +26°C° 0.2 mm 1 mps 746 mmHg 68%
    07:00 +27°C° 0.2 mm 1 mps 747 mmHg 67%
    08:00 +29°C° 0.1 mm 1 mps 747 mmHg 61%
    09:00 +30°C° 0.1 mm 1 mps 747 mmHg 55%
    10:00 +32°C° 0.1 mm 1 mps 747 mmHg 48%
    11:00 +33°C° 0 mm 1 mps 747 mmHg 43%
    12:00 +36°C° 0 mm 2 mps 747 mmHg 38%
    13:00 +37°C° 0 mm 2 mps 746 mmHg 32%
    14:00 +38°C° 0 mm 2 mps 746 mmHg 30%
    15:00 +38°C° 0 mm 2 mps 746 mmHg 27%
    16:00 +39°C° 0 mm 1 mps 746 mmHg 24%
    17:00 +37°C° 0 mm 2 mps 746 mmHg 29%
    18:00 +35°C° 0 mm 2 mps 746 mmHg 33%
    19:00 +32°C° 0 mm 2 mps 745 mmHg 38%
    20:00 +31°C° 0 mm 2 mps 746 mmHg 40%
    21:00 +29°C° 0 mm 2 mps 746 mmHg 42%
    22:00 +28°C° 0 mm 2 mps 746 mmHg 44%
    23:00 +27°C° 0 mm 2 mps 746 mmHg 45%
    Show more